Bookmark and Share
Track history (hours):
 

Tb_john

Last reported at 2014-Apr-19 12:19 UTC. Time now 2014-Apr-19 14:41 UTC.
Position N 59°20' E 010°31'.

Length 33 m; draft 5 m.

Type: Tug. MMSI: 259599000.

NotesDate/timePositionNaut miles runAvg speedWind from/ knotsBaromVisibWave heightAir tempDewpointWater temp
2014-Apr-19 12:19N 59°20' E 010°31'0 0.0
2014-Apr-19 08:15N 59°20' E 010°31'0 0.0
2014-Apr-19 03:23N 59°20' E 010°31'0 0.0
2014-Apr-19 02:30N 59°20' E 010°31'0 0.0
2014-Apr-19 01:14N 59°20' E 010°31'0 0.0
2014-Apr-18 21:33N 59°20' E 010°31'0 0.0
2014-Apr-18 16:07N 59°20' E 010°31'0 0.0
2014-Apr-18 14:06N 59°20' E 010°31'0 0.0
2014-Apr-18 11:30N 59°20' E 010°31'0 0.0
2014-Apr-18 06:30N 59°20' E 010°31'0 0.0
2014-Apr-18 02:32N 59°20' E 010°31'0 0.0
2014-Apr-17 22:17N 59°20' E 010°31'0 0.0
2014-Apr-17 20:18N 59°20' E 010°31'0 0.0
2014-Apr-17 19:25N 59°20' E 010°31'0 0.0
2014-Apr-17 18:06N 59°20' E 010°31'0 0.0
2014-Apr-17 10:17N 59°20' E 010°31'0 0.0
2014-Apr-17 06:07N 59°20' E 010°31'0 0.0
2014-Apr-17 04:08N 59°20' E 010°31'0 0.0
2014-Apr-17 03:30N 59°20' E 010°31'0 0.0
2014-Apr-16 23:30N 59°20' E 010°31'2 1.3
2014-Apr-16 22:11N 59°19' E 010°33'6 9.1
2014-Apr-16 21:30N 59°13' E 010°38'1 1.3
2014-Apr-16 20:32N 59°12' E 010°37'8 7.7
2014-Apr-16 19:27N 59°20' E 010°31'0 0.0
2014-Apr-16 18:06N 59°20' E 010°31'0 0.0
2014-Apr-16 14:31N 59°20' E 010°31'0 0.0
2014-Apr-16 12:25N 59°20' E 010°31'0 0.0
2014-Apr-16 11:27N 59°20' E 010°31'0 0.0
2014-Apr-16 10:25N 59°20' E 010°31'8 8.4
2014-Apr-16 09:24N 59°12' E 010°37'8 8.4
2014-Apr-16 08:28N 59°19' E 010°32'1 0.9
2014-Apr-16 07:25N 59°20' E 010°31'0 0.0
2014-Apr-16 06:29N 59°20' E 010°31'0 0.0
2014-Apr-16 05:28N 59°20' E 010°31'0 0.0
2014-Apr-16 04:27N 59°20' E 010°31'0 0.0
2014-Apr-16 02:31N 59°20' E 010°31'0 0.0
2014-Apr-16 00:22N 59°20' E 010°31'1 1.7
2014-Apr-15 23:28N 59°21' E 010°33'1 1.3
2014-Apr-15 22:20N 59°20' E 010°31'0 0.0
2014-Apr-15 20:29N 59°20' E 010°31'0 0.0
2014-Apr-15 19:18N 59°20' E 010°31'0 0.0
2014-Apr-15 17:25N 59°20' E 010°31'1 0.1
2014-Apr-15 05:33N 59°20' E 010°30'1 0.3
2014-Apr-15 03:31N 59°20' E 010°31'0 0.0
2014-Apr-14 17:31N 59°20' E 010°31'0 0.0
2014-Apr-14 15:31N 59°20' E 010°31'0 0.0
2014-Apr-14 13:31N 59°20' E 010°31'0 0.0
2014-Apr-13 20:10N 59°20' E 010°31'0 0.0
2014-Apr-13 19:20N 59°20' E 010°31'0 0.0
2014-Apr-13 17:32N 59°20' E 010°31'0 0.0
2014-Apr-13 16:05N 59°20' E 010°31'0 0.0
2014-Apr-13 14:31N 59°20' E 010°31'0 0.0
2014-Apr-13 13:12N 59°20' E 010°31'0 0.0
2014-Apr-13 12:17N 59°20' E 010°31'0 0.0
2014-Apr-13 11:04N 59°20' E 010°31'0 0.0
2014-Apr-13 10:14N 59°20' E 010°31'0 0.0
2014-Apr-13 07:21N 59°20' E 010°31'0 0.0
2014-Apr-13 06:18N 59°20' E 010°31'0 0.0
2014-Apr-13 01:06N 59°20' E 010°31'0 0.0
2014-Apr-13 00:21N 59°20' E 010°31'0 0.0
2014-Apr-12 21:15N 59°20' E 010°31'0 0.0
2014-Apr-12 18:05N 59°20' E 010°31'0 0.0
2014-Apr-12 16:24N 59°20' E 010°31'0 0.0
2014-Apr-12 15:33N 59°20' E 010°31'0 0.0
2014-Apr-12 14:14N 59°20' E 010°31'0 0.0
2014-Apr-12 12:14N 59°20' E 010°31'0 0.0
2014-Apr-12 11:15N 59°20' E 010°31'0 0.0
2014-Apr-12 08:20N 59°20' E 010°31'0 0.0
2014-Apr-12 07:18N 59°20' E 010°31'0 0.0
2014-Apr-12 06:16N 59°20' E 010°31'0 0.0
2014-Apr-12 05:29N 59°20' E 010°31'0 0.0
2014-Apr-12 04:25N 59°20' E 010°31'0 0.0
2014-Apr-12 02:21N 59°20' E 010°31'0 0.0
2014-Apr-12 01:27N 59°20' E 010°31'0 0.0
2014-Apr-12 00:31N 59°20' E 010°31'0 0.0
2014-Apr-11 22:04N 59°20' E 010°31'0 0.0
2014-Apr-11 21:04N 59°20' E 010°31'0 0.0
2014-Apr-11 20:31N 59°20' E 010°31'0 0.0
2014-Apr-11 18:32N 59°20' E 010°31'0 0.0
2014-Apr-11 17:18N 59°20' E 010°31'0 0.0
2014-Apr-11 15:08N 59°20' E 010°31'0 0.0
2014-Apr-11 13:09N 59°20' E 010°31'0 0.0
2014-Apr-11 12:17N 59°20' E 010°31'0 0.0
2014-Apr-11 10:20N 59°20' E 010°31'0 0.0
2014-Apr-11 09:30N 59°20' E 010°31'0 0.0
2014-Apr-11 07:14N 59°20' E 010°31'0 0.0
2014-Apr-11 06:27N 59°20' E 010°31'0 0.0
2014-Apr-11 05:23N 59°20' E 010°31'0 0.0
2014-Apr-11 04:17N 59°20' E 010°31'0 0.0
2014-Apr-11 03:08N 59°20' E 010°31'0 0.0
2014-Apr-11 02:21N 59°20' E 010°31'0 0.0
2014-Apr-11 01:32N 59°20' E 010°31'0 0.0
2014-Apr-11 00:32N 59°20' E 010°31'0 0.0
2014-Apr-10 22:12N 59°20' E 010°31'0 0.0
2014-Apr-10 21:25N 59°20' E 010°31'0 0.0
2014-Apr-10 20:30N 59°20' E 010°31'0 0.0
2014-Apr-10 19:24N 59°20' E 010°31'0 0.0
2014-Apr-10 18:24N 59°20' E 010°31'0 0.0
2014-Apr-10 16:06N 59°20' E 010°31'0 0.0
2014-Apr-10 14:22N 59°20' E 010°31'0 0.0
2014-Apr-10 11:04N 59°20' E 010°31'0 0.0
2014-Apr-10 10:31N 59°20' E 010°31'0 0.0
2014-Apr-10 09:14N 59°20' E 010°31'0 0.0
2014-Apr-10 07:31N 59°20' E 010°31'0 0.0
2014-Apr-10 06:24N 59°20' E 010°31'0 0.0
2014-Apr-10 04:21N 59°20' E 010°31'0 0.0
2014-Apr-10 02:26N 59°20' E 010°31'0 0.0
2014-Apr-10 01:30N 59°20' E 010°31'0 0.1
2014-Apr-10 00:09N 59°20' E 010°31'2 3.2
2014-Apr-09 23:29N 59°18' E 010°34'9 9.4
2014-Apr-09 22:32N 59°09' E 010°37'7 6.1
2014-Apr-09 21:27N 59°16' E 010°35'4 4.3
2014-Apr-09 20:29N 59°20' E 010°31'0 0.0
2014-Apr-09 19:13N 59°20' E 010°31'0 0.0
2014-Apr-09 18:25N 59°20' E 010°31'0 0.0
2014-Apr-09 17:27N 59°20' E 010°31'0 0.0
2014-Apr-09 16:24N 59°20' E 010°31'0 0.0
2014-Apr-09 15:23N 59°20' E 010°31'0 0.0
2014-Apr-09 13:29N 59°20' E 010°31'  

Dump ship's entire track history

sailing weather and tide predictions

Tb_john — LJUO — position and weather